User: anonymous   Login
Location: Schommer Observatory
(40.5200°N, 74.4500°W)
Time: 13:31:48
(UTC-04:00)
Language:

N. Korean satellite - Orbit

View from above orbital plane
View from above orbital plane
View from above satellite
View from above satellite

Ground track
Ground track

The orbit data is extracted from the following two-line orbital elements,

1 39026U 12072A   18288.54095715  .00001741  00000-0  66966-4 0  9995
2 39026  97.2113 294.8394 0037080 255.2981 104.4147 15.27109353324022
Epoch (UTC): 15 October 2018 12:58:58
Eccentricity: 0.0037080
inclination: 97.2113°
perigee height: 459 km
apogee height: 510 km
right ascension of ascending node: 294.8394°
argument of perigee: 255.2981°
revolutions per day: 15.27109353
mean anomaly at epoch: 104.4147°
orbit number at epoch: 32402

The dashed part of the orbit path shows where the satellite is in the earth's shadow,  

DLR